Location: Bienfait
(49.1431°N, 102.8077°W)
Time: 20:52:20
(UTC+00:00)

Envisat - Pass Details

Date: 31 January 2022
Orbit: 764 x 765 km, 98.2° (Epoch: 22 May)

Event Time Altitude Azimuth Distance (km) Brightness Sun altitude
Rises 12:50:21 0° 7° (N) 3,243 6.2 -15.3°
Reaches altitude 10° 12:52:50 10° 358° (N) 2,313 5.4 -14.9°
Maximum altitude 12:57:22 33° 295° (WNW) 1,264 3.6 -14.2°
Drops below altitude 10° 13:01:52 10° 233° (SW) 2,300 5.1 -13.4°
Sets 13:04:20 0° 224° (SW) 3,222 5.9 -13.0°
